map of CCU home
CCU - Airport
Location
City:  Kolkata, West Bengal, India
Near (Alt.):Calcutta
Name:Netaji Subhash Chandra Bose International Airport
Old (Alt.):Dum Dum Airport
ICAO:VECC
IATA:CCU

Details
Type:Airport (Aerodrome, Airfield)
Use:Public/Civil, International (customs port of entry)
Latitude:22°39'17"N (22.654739)
Longitude:88°26'48"E (88.446722)
Datum:WGS 1984
Elevation:16 ft (5 m)
Variation:0.36°W (WMM2015v2 magnetic declination)
-0.01° annual change
Runways:2
Longest:11900 × 150 ft (3627 × 45.5 m), paved

Time
Time Zone:UTC+5:30
Local Time:

Weather
METAR:VECC 041400Z 00000KT 3600 HZ NSC 21/11 Q1017 NOSIG
TAF:VECC 041100Z 0412/0518 00000KTT 3500 HZ NSC
BECMG 0422/0424 2000 BR
BECMG 0503/0505 34005KT 4000 HZ
BECMG 0513/0515 00000KT 2800 HZ

Related Locations
Nearby:
Farthest:SCFX: 11682 mi / 18800 km
Isla San Félix, Desventuradas Islands, VS, CL

Find:

   beyond  
but within

Other Information
Maps:
NOTAMs:
Links:
Sources:

  
  • flag of India
  

Sectional Chart

Flight Planning
at skyvector.com

Satellite Image

Google Maps Satellite view

 

Copyright © 2004-2019 Karl L. Swartz. All rights reserved.
The Great Circle Mapper name and logo are trademarks of the Great Circle Mapper.
All other trademarks mentioned herein belong to their respective owners.
Please see credits for attibutions and further copyright information.

  Follow gcmap on Facebook Follow gcmap on Twitter GCmap on LinkedIn

hCard Microformat

Geo Microformat